Skip Page Navigation
NASA JPL Caltech
NASA Logo - Jet Propulsion Laboratory + View the NASA Portal
+ Near-Earth Object (NEO) Program
Search JPL
JPL Home Earth Solar System Stars & Galaxies Technology
JPL Solar System Dynamics
BODIES ORBITS EPHEMERIDES TOOLS PHYSICAL DATA DISCOVERY FAQ SITE MAP
JPL Small-Body Database Browser
Search: [ help ]  
12005 Delgiudice (1996 KA3)
Classification: Main-belt Asteroid          SPK-ID: 2012005
Ephemeris | Orbit Diagram | Orbital Elements | Physical Parameters | Discovery Circumstances | Close-Approach Data ]

[ show orbit diagram ]
Orbital Elements at Epoch 2457600.5 (2016-Jul-31.0) TDB
Reference: JPL 23 (heliocentric ecliptic J2000)
 Element Value Uncertainty (1-sigma)   Units 
e .1650242724401089 5.3081e-08  
a 3.163235041146306 2.7109e-08 au
q 2.641224479924079 1.6716e-07 au
i 10.90971109924279 6.3878e-06 deg
node 132.9227626625388 2.7882e-05 deg
peri 136.8680441485664 3.3478e-05 deg
M 105.3473466546911 1.9406e-05 deg
tp 2456999.164667678064
(2014-Dec-07.66466768)
0.00010929 JED
period 2054.923322800717
5.63
2.6416e-05
7.232e-08
d
yr
n .1751890184930818 2.2521e-09 deg/d
Q 3.685245602368533 3.1583e-08 au
  Orbit Determination Parameters
   # obs. used (total)      1259  
   data-arc span      7329 days (20.07 yr)  
   first obs. used      1995-11-20  
   last obs. used      2015-12-14  
   planetary ephem.      DE431  
   SB-pert. ephem.      SB431-BIG16  
   condition code      0  
   fit RMS      .51947  
   data source      ORB  
   producer      Otto Matic  
   solution date      2016-Jan-04 13:19:22  

Additional Information
 Earth MOID = 1.63735 au 
 Jupiter MOID = 1.54416 au 
 T_jup = 3.155 
[ show covariance matrix ]

Ephemeris | Orbit Diagram | Orbital Elements | Physical Parameters | Discovery Circumstances | Close-Approach Data ]

Physical Parameter Table
Parameter Symbol Value Units Sigma Reference Notes
absolute magnitude H 12.6 mag n/a MPO263457  

12005 Delgiudice           Discovered 1996 May 19 by R. Weber et al. at Socorro.
Maria del Giudice (b. 1964) was a good and great friend of one of the team's observers and measurers, Frank Shelly. She is now his wife.
NOTE: some special characters may not display properly (any characters within {} are an attempt to place the proper accent above a character)
Reference: 20080618/MPCPages.arcLast Updated: 2008-06-20

[ show close-approach data ]
Alternate Designations
 1996 KA3 = 1987 SY13 = 1997 JP 
Ephemeris | Orbit Diagram | Orbital Elements | Physical Parameters | Discovery Circumstances | Close-Approach Data ]
ABOUT SSD CREDITS/AWARDS PRIVACY/COPYRIGHT GLOSSARY LINKS
FirstGov 2016-Apr-30 01:28 UT
(server date/time)  
NASA Home Page
Site Manager:   Ryan S. Park
Webmaster  Alan B. Chamberlin